This is the latest recevied weather packets stored in our database for station/object K0NV. If no packets are shown the sender has not sent any weather packets the latest 10 day(s).
| Time | Temp. | Humidity | Pressure | Rain* | Wind** | Luminosity | Snow |
|---|---|---|---|---|---|---|---|
| 1777941213 | 22.22° C | 62% | 1006.6 hPa | 0 mm | - | 13 W/m² | - |
| 1777940908 | 22.22° C | 61% | 1006.5 hPa | 0 mm | - | 16 W/m² | - |
| 1777940606 | 22.78° C | 60% | 1006.5 hPa | 0 mm | - | 22 W/m² | - |
| 1777940304 | 22.78° C | 60% | 1006.3 hPa | 0 mm | - | 19 W/m² | - |
| 1777940000 | 22.78° C | 59% | 1006.3 hPa | 0 mm | - | 37 W/m² | - |
| 1777939698 | 22.78° C | 59% | 1006.3 hPa | 0 mm | - | 38 W/m² | - |
| 1777939396 | 22.78° C | 60% | 1006.4 hPa | 0 mm | - | 42 W/m² | - |
| 1777939092 | 23.33° C | 59% | 1006.4 hPa | 0 mm | - | 48 W/m² | - |
| 1777938789 | 23.33° C | 58% | 1006.4 hPa | 0 mm | - | 47 W/m² | - |
| 1777938486 | 23.89° C | 57% | 1006.5 hPa | 0 mm | - | 45 W/m² | - |
| 1777938183 | 23.89° C | 56% | 1006.2 hPa | 0 mm | - | 49 W/m² | - |
| 1777937879 | 24.44° C | 56% | 1006.3 hPa | 0 mm | - | 86 W/m² | - |
| 1777937575 | 24.44° C | 54% | 1006.5 hPa | 0 mm | - | 97 W/m² | - |
| 1777937272 | 24.44° C | 54% | 1006.5 hPa | 0 mm | - | 124 W/m² | - |
| 1777936969 | 25° C | 54% | 1006.2 hPa | 0 mm | - | 117 W/m² | - |
| 1777936666 | 25° C | 53% | 1006.4 hPa | 0 mm | - | 153 W/m² | - |
| 1777936362 | 25° C | 53% | 1006.1 hPa | 0 mm | - | 172 W/m² | - |
| 1777936058 | 25° C | 52% | 1006 hPa | 0 mm | - | 197 W/m² | - |
| 1777935757 | 25.56° C | 52% | 1006.1 hPa | 0 mm | - | 199 W/m² | - |
| 1777935456 | 25.56° C | 52% | 1006.4 hPa | 0 mm | - | 209 W/m² | - |
| 1777935151 | 25.56° C | 52% | 1006.3 hPa | 0 mm | - | 261 W/m² | - |
| 1777934849 | 25.56° C | 53% | 1006.2 hPa | 0 mm | - | 274 W/m² | - |
| 1777934546 | 25.56° C | 53% | 1006.2 hPa | 0 mm | - | 265 W/m² | - |
| 1777934242 | 25.56° C | 53% | 1006.4 hPa | 0 mm | - | 294 W/m² | - |
| 1777933938 | 25.56° C | 54% | 1006.2 hPa | 0 mm | - | 327 W/m² | - |
* Rain latest hour (hover to see other rain measurements)
** Current wind speed in m/s (hover to see current wind gust speed)